Orbital Elements at Epoch 2459080.5 (2020-Aug-19.0) TDB
Reference: JPL 1 (heliocentric ecliptic J2000)
Element | Value | Uncertainty (1-sigma) | Units |
e | .2956761596880334 | 0.0022979 | |
a | .8140211139166237 | 0.0011165 | au |
q | .5733344770487813 | 0.0026569 | au |
i | 6.804304717396811 | 0.075885 | deg |
node | 334.7565723665472 | 0.015012 | deg |
peri | 158.3287772272045 | 0.012201 | deg |
M | 204.0406349208794 | 0.11629 | deg |
tp | 2459196.714652810004 (2020-Dec-13.21465281) | 0.32546 | TDB |
period | 268.2575361240843 0.73 | 0.5519 0.001511 | d yr |
n | 1.341993985337581 | 0.0027609 | deg/d |
Q | 1.054707750784466 | 0.0014466 | au |
|
| | Orbit Determination Parameters
Additional Information
|